Location: Bretagne
(43.8474°N, 0.4650°W)
Time: 09:57:03
(UTC+00:00)

ARIANE 5 R/B - Pass Details

Date: 15 January 2026
Orbit: 746 x 793 km, 98.8° (Epoch: 11 February)

Event Time Altitude Azimuth Distance (km) Brightness Sun altitude
Rises 17:58:11 0° 173° (S) 3,275 5.9 -12.1°
Reaches altitude 10° 18:00:31 10° 176° (S) 2,352 5.2 -12.5°
Maximum altitude 18:05:41 64° 258° (WSW) 879 3.1 -13.4°
Drops below altitude 10° 18:10:52 10° 340° (NNW) 2,364 5.1 -14.3°
Sets 18:13:14 0° 343° (NNW) 3,293 5.8 -14.7°
